Submittal Forms
Current Contests
Recent Contests

Club Activity Tracker - Minnesota Wireless Assn (from club selection on form)

Recent postings for the selected club or group are listed below. Other than the call used, all calls listed are only those associated with the club or group. Click on a call to see the details of the posting.
Status Key: new=new posting, update=update prior posting, move=change club/group, delete=delete prior posting.

Sort by   for past

TimestampCallContestClassPowerScoreStatus
2020-05-26 02:18:36W0AAEWWSACSOAB-YouthHP5,670new5606
2020-05-26 02:07:15W6GMTWWSACSOAB-OMLP150new5606
2020-05-25 14:07:45K0ADQCXSingle OpQRP12new5603
2020-05-22 03:01:23K0TGNCCC SprintSingle OpLP460new5598
2020-05-21 04:03:44K0ADCWopsTSingle OpLP17,810new5594
2020-05-21 04:02:38K0TGCWopsTSingle OpHP4,824new5594
2020-05-21 03:32:15W0ORCWopsTSingle OpLP2,025new5594
2020-05-21 03:27:52K0TCCWopsTSingle OpHP625new5594
2020-05-21 03:23:08K0PKCWopsTSingle OpHP324new5594
2020-05-20 20:09:02NE9UCWopsTSingle OpLP13,688new5593
 
2020-05-20 20:04:19K0PCCWopsTSingle OpLP1,260new5593
2020-05-20 20:04:03W0ORCWopsTSingle OpLP11,990new5593
2020-05-20 20:02:58K0ADCWopsTSingle OpLP14,268new5593
2020-05-20 20:02:45N0URCWopsTSingle OpQRP4,624new5593
2020-05-20 20:02:40W6GMTCWopsTSingle OpQRP361new5593
2020-05-20 20:02:10K4IUCWopsTSingle OpHP6,059new5593
2020-05-20 20:01:12K0TCCWopsTSingle OpHP1,849new5593
2020-05-20 20:00:07KB0RCWopsTSingle OpLP1,369new5593
2020-05-20 19:59:21K0YLCWopsTSingle OpHP289new5593
2020-05-20 19:11:54K0PKCWopsTSingle OpLP225new5593
 
2020-05-20 14:03:59W0ORCWopsTSingle OpLP11,025new5592
2020-05-20 14:03:47K0ADCWopsTSingle OpLP19,317new5592
2020-05-20 14:02:27K4IUCWopsTSingle OpHP9,000new5592
2020-05-20 14:01:39K0TCCWopsTSingle OpHP2,295new5592
2020-05-20 13:22:48K0PKCWopsTSingle OpLP729new5592
2020-05-19 12:58:39W0AAEWWSACSOAB-YouthHP8,960new5587
2020-05-19 02:08:18W6GMTWWSACSOAB-OMLP351new5587
2020-05-17 14:02:59NI0KHamventionSingle OpHP23new5569
2020-05-17 03:39:18KA8HDEHamventionSingle OpLP80new5569
2020-05-17 02:45:52K0ADHamventionSingle OpLP153new5569
 
2020-05-17 00:18:55W6GMTHamventionSingle OpQRP90new5569
2020-05-17 00:12:18K0TCHamventionSingle OpHP216new5569
2020-05-17 00:08:14K0RJWHamventionSingle OpHP88new5569
2020-05-17 00:06:51W0ZFHamventionSingle OpLP53new5569
2020-05-15 03:02:37K0TGNCCC SprintSingle OpLP475new5580
2020-05-14 04:03:36K0MPHCWopsTSingle OpLP5,236new5576
2020-05-14 04:02:08W0ORCWopsTSingle OpLP7,921new5576
2020-05-14 04:01:19K0TGCWopsTSingle OpHP5,396new5576
2020-05-14 04:00:52K0PCCWopsTSingle OpLP5,214new5576
2020-05-14 03:47:09KA8HDECWopsTSingle OpLP841new5576
 
2020-05-14 03:30:11K0TCCWopsTSingle OpHP1,296new5576
2020-05-14 03:20:48K0PKCWopsTSingle OpLP400new5576
2020-05-14 03:04:57K0YLCWopsTSingle OpHP400new5575
2020-05-13 20:33:48KA8HDECWopsTSingle OpLP1,560new5575
2020-05-13 20:16:19K0MPHCWopsTSingle OpLP3,477new5575
2020-05-13 20:15:24W6GMTCWopsTSingle OpQRP256new5575
2020-05-13 20:09:03NE9UCWopsTSingle OpHP20,736new5575
2020-05-13 20:03:54K0ADCWopsTSingle OpLP23,250new5575
2020-05-13 20:02:47W0ORCWopsTSingle OpLP16,384new5575
2020-05-13 20:02:08W0PICWopsTSingle OpLP6,889new5575
 
2020-05-13 20:01:55K4IUCWopsTSingle OpLP6,225new5575
2020-05-13 20:01:26N0URCWopsTSingle OpQRP3,596new5575
2020-05-13 20:01:20K0TCCWopsTSingle OpHP2,208new5575
2020-05-13 19:47:28K0PCCWopsTSingle OpLP2,295new5575
2020-05-13 19:17:42K0PKCWopsTSingle OpLP272new5575
2020-05-13 15:26:32K0MPHCWopsTSingle OpLP4,489new5574
2020-05-13 14:14:17KA8HDECWopsTSingle OpLP729new5574
2020-05-13 14:09:07W6GMTCWopsTSingle OpQRP210new5574
2020-05-13 14:03:47W0ORCWopsTSingle OpLP13,225new5574
2020-05-13 14:03:42K0ADCWopsTSingle OpLP16,244new5574
 
2020-05-13 14:03:08K4IUCWopsTSingle OpLP8,736new5574
2020-05-13 14:02:50K0TGCWopsTSingle OpHP6,160new5574
2020-05-13 14:02:34KM0OCWopsTSingle OpLP9,600new5574
2020-05-13 14:01:41W0PICWopsTSingle OpLP6,889new5574
2020-05-13 14:01:12K0TCCWopsTSingle OpHP2,304new5574
2020-05-13 13:17:46K0PKCWopsTSingle OpLP289new5574
2020-05-12 02:17:58W6GMTWWSACSOAB-OMQRP48new5568
2020-05-11 23:14:44KA9VVQArQPM/SLP1,776new5565
 (W9FZ,@KA9VVQ)
2020-05-11 02:33:41AC0WArQPSOMixedLP9,344update5565
2020-05-10 22:45:17N0UK50SprngSprntSingle OpLP84new5567
 
2020-05-10 21:43:15KI0FArQPSOMixedHP1,550new5565
2020-05-10 16:40:38K0TI50SprngSprntSingle OpLP630new5567
2020-05-10 16:34:21KJ0P50SprngSprntSingle OpLP20new5567
2020-05-10 16:33:41K0ADCQ-MSOABCWHP46,630new5564
2020-05-10 15:41:42KB9SArQPSOCWLP1,044new5565
2020-05-10 15:27:43WB0IWG50SprngSprntSingle OpQRP160update5567
2020-05-10 15:14:21K0BBC50SprngSprntSingle OpHP630move5567
2020-05-10 13:32:44W0ZQArQPSOCWLP592new5565
2020-05-10 12:44:59W6GMTVolta RTTYSOABQRP100new5563
2020-05-10 12:39:07N0HJZArQPSOMixedLP2,134new5565
 
2020-05-10 06:14:41K0JPVolta RTTYSOABLP792,918new5563
2020-05-10 05:31:27K0MKLVolta RTTYSOABLP11,277,024new5563
2020-05-10 03:54:07K4IUCQ-MSOABCWHP10,200new5564
2020-05-10 02:07:05W0PIArQPSOMixedLP5,351update5565
2020-05-10 02:05:36K0RJWArQPSOSSBHP738new5565
2020-05-10 01:28:46W6GMTArQPSOCWLP176new5565
2020-05-10 00:57:55K0TCArQPSOCWHP1,440new5565
2020-05-08 03:03:34K0ADNCCC SprintSingle OpLP1,558new5562
2020-05-08 03:02:01K0TGNCCC SprintSingle OpLP690new5562
2020-05-07 04:04:02KA8HDECWopsTSingle OpLP1,845new5559
 
2020-05-07 04:03:31K0ADCWopsTSingle OpLP17,157new5559
2020-05-07 04:02:22K4IUCWopsTSingle OpHP9,951new5559
2020-05-07 04:02:06K0TGCWopsTSingle OpHP10,185new5559
2020-05-07 03:28:06K0TCCWopsTSingle OpHP1,024new5559
2020-05-07 03:15:55K0PKCWopsTSingle OpLP196new5559
2020-05-06 23:16:14KA8HDECWopsTSingle OpLP324new5558
2020-05-06 23:15:01KA8HDECWopsTSingle OpLP621new5557
2020-05-06 21:16:37KB9SCWopsTSingle OpLP324new5558
2020-05-06 20:23:12W6GMTCWopsTSingle OpLP132new5558
2020-05-06 20:03:07K0ADCWopsTSingle OpLP15,851new5558
 
2020-05-06 20:01:26K0TCCWopsTSingle OpHP2,915new5558
2020-05-06 19:43:30W0ORCWopsTSingle OpLP3,600new5558
2020-05-06 19:27:55W0PICWopsTSingle OpLP1,089new5558
2020-05-06 19:17:55K0PKCWopsTSingle OpLP289new5558
2020-05-06 14:03:42W0ORCWopsTSingle OpLP11,760new5557
2020-05-06 14:03:29K0ADCWopsTSingle OpLP18,330new5557
2020-05-06 14:02:30KM0OCWopsTSingle OpLP11,648new5557
2020-05-06 14:01:52K0TGCWopsTSingle OpHP6,640new5557
2020-05-06 14:01:38W0PICWopsTSingle OpLP4,761new5557
2020-05-06 14:01:38K4IUCWopsTSingle OpLP4,352new5557
 
2020-05-06 14:01:10K0TCCWopsTSingle OpHP1,521new5557
2020-05-06 13:41:40K0MPHCWopsTSingle OpLP1,600new5557
2020-05-06 13:12:26K0PKCWopsTSingle OpLP144new5557
2020-05-05 18:35:18KI0F7QPSO(A)MixedHP18,414update5544
2020-05-05 02:08:24KB9SInQPSingle OpLP126new5545
2020-05-05 02:05:37KB9SNewEngQPSingle OpLP3,726new5547
2020-05-05 02:03:14KB9S7QPSOCWLP1,311new5544
2020-05-04 20:10:36K0TCNewEngQPSingle OpHP9,750new5547
2020-05-04 20:09:29K0TCInQPSingle OpHP30new5545
2020-05-04 20:07:53K0TCDeQPSingle OpHP360new5546
 
2020-05-04 20:06:24K0TC7QPSOCWHP14,766new5544
2020-05-04 16:14:31KA9VVQFlQPM/SMixedLP15,974new5529
 (W9FZ,@KA9VVQ)
2020-05-04 16:04:45KA9VVQOnQPM/SLP1new5507
 (W9FZ,@KA9VVQ)
2020-05-04 16:01:45KA9VVQNewEngQPM/SLP4,658new5547
 (W9FZ,@KA9VVQ)
2020-05-04 16:00:10KA9VVQInQPM/SLP176new5545
 (W9FZ,@KA9VVQ)
2020-05-04 15:58:52KA9VVQDeQPM/SLP440new5546
 (W9FZ,@KA9VVQ)
2020-05-04 15:56:44KA9VVQ7QPM/SLP2,016new5544
 (W9FZ,@KA9VVQ)
2020-05-04 14:47:24K0JPNewEngQPSingle OpLP9,675update5547
2020-05-04 14:45:29AC0W7QPSO(A)MixedLP36,190update5544
2020-05-04 14:34:14W0ZQInQPSingle OpHP1,254new5545
 
2020-05-04 14:33:07W0ZQNewEngQPSingle OpHP14,758new5547
2020-05-04 14:31:43W0ZQDeQPSingle OpHP140new5546
2020-05-04 14:30:23W0ZQ7QPSOMixedHP26,854new5544
2020-05-04 13:09:14N0HJZNewEngQPSingle OpLP22,737new5547
2020-05-04 10:25:46N0HJZDeQPSingle OpLP10new5546
2020-05-04 01:02:50AC0WNewEngQPSingle OpLP25,520new5547
2020-05-04 01:01:50AC0WInQPSingle OpLP3,626new5545
2020-05-04 00:54:40AC0WDeQPSingle OpLP3,240new5546
2020-05-04 00:35:22K0MPHNewEngQPSingle OpLP19,552new5547
2020-05-04 00:33:54K0MPHInQPSingle OpLP1,420new5545
 
2020-05-04 00:31:01K0MPH7QPSO(A)MixedLP44,064new5544
2020-05-04 00:18:36W0PINewEngQPSingle OpLP18,240new5547
2020-05-04 00:15:44W0PIInQPSingle OpLP1,624new5545
2020-05-04 00:12:38W0PIDeQPSingle OpLP3,240new5546
2020-05-04 00:10:33W0PI7QPSOMixedLP27,838new5544
2020-05-04 00:05:12K0RJWNewEngQPSingle OpHP3,432new5547
2020-05-04 00:03:44W6GMTNewEngQPSingle OpLP2,750new5547
2020-05-03 23:55:10W6GMTDeQPSingle OpLP8new5546
2020-05-03 16:30:53K0RJWInQPSingle OpHP1,035new5545
2020-05-03 16:29:49K0RJW7QPSO(A)SSBHP11,024new5544
 
2020-05-03 16:22:15K0RJWDeQPSingle OpHP3new5546
2020-05-03 15:55:06N0UKMWaveSprngSprntSingle OpLP453new5542
2020-05-03 12:43:37N0HJZ7QPSOMixedLP10,488new5544
2020-05-03 12:38:08N0HJZInQPSingle OpLP532new5545
2020-05-03 05:30:01K0JPARISO MixedLP322new5543
2020-05-03 05:09:05K0JPInQPSingle OpLP450new5545
2020-05-03 05:07:08K0JP7QPSOMixedLP36,985new5544
2020-05-03 04:45:26KA8HDENewEngQPSingle OpLP3,201new5547
2020-05-03 04:41:41KA8HDEInQPSingle OpLP90new5545
2020-05-03 04:39:32KA8HDEDeQPSingle OpLP12new5546
 
2020-05-03 04:37:35KA8HDE7QPSOMixedLP14,620new5544
2020-05-03 02:18:54W6GMT7QPSOCWLP2,898new5544
2020-05-01 03:01:02K0TGNCCC SprintSingle OpLP810new5540
2020-05-01 02:17:19K4IUNCCC RY-SprintSingle OpLP104new5539
2020-04-30 04:02:59W0ORCWopsTSingle OpLP10,682new5537
2020-04-30 04:02:45K0ADCWopsTSingle OpLP13,875new5537
2020-04-30 04:02:13K0MPHCWopsTSingle OpLP4,810new5537
2020-04-30 04:01:35K4IUCWopsTSingle OpLP8,439new5537
2020-04-30 04:01:27K0TGCWopsTSingle OpHP5,520new5537
2020-04-30 03:32:43K0TCCWopsTSingle OpHP529new5537
 
2020-04-30 03:23:01K0PKCWopsTSingle OpLP600new5537
2020-04-29 23:45:07W6GMTCWopsTSingle OpQRP64new5536
2020-04-29 21:01:39K0MPHCWopsTSingle OpLP1,849new5536
2020-04-29 20:04:43KM0OCWopsTSingle OpHP12,432new5536
2020-04-29 20:03:44W0ORCWopsTSingle OpLP10,185new5536
2020-04-29 20:02:54K0ADCWopsTSingle OpLP15,488new5536
2020-04-29 20:02:14K0TGCWopsTSingle OpHP3,240new5536
2020-04-29 20:01:47K4IUCWopsTSingle OpLP6,960new5536
2020-04-29 20:01:35KB0RCWopsTSingle OpLP1,936new5536
2020-04-29 20:01:27W0PICWopsTSingle OpLP6,561new5536
 
2020-04-29 20:01:04K0TCCWopsTSingle OpHP2,116new5536
2020-04-29 19:18:25K0PKCWopsTSingle OpLP400new5536
2020-04-29 17:46:11K0MPHCWopsTSingle OpLP2,205new5535
2020-04-29 14:07:23N0BKCWopsTSingle OpLP1,517new5535
2020-04-29 14:05:35W6GMTCWopsTSingle OpLP169new5535
2020-04-29 14:03:38K0ADCWopsTSingle OpLP15,744new5535
2020-04-29 14:03:13W0ORCWopsTSingle OpLP11,664new5535
2020-04-29 14:02:26K0TGCWopsTSingle OpHP5,184new5535
2020-04-29 14:02:24K4IUCWopsTSingle OpLP4,026new5535
2020-04-29 14:01:52N0URCWopsTSingle OpQRP1,638new5535
 
2020-04-29 14:01:18K0TCCWopsTSingle OpHP2,601new5535
2020-04-29 13:33:04K0PKCWopsTSingle OpLP1,089new5535
2020-04-27 13:59:23KB9SFlQPSOABCWLP1,664new5529
2020-04-27 12:03:07N0HJZFlQPSOAB(A)MixedLP46,978new5529
2020-04-27 01:13:01KI0FFlQPSOAB(A)MixedHP49,500update5529
2020-04-26 23:51:21K0JPFlQPSOAB(A)CWLP2,508new5529
2020-04-26 22:50:22W0PINMQPSingle OpLP4new5486
2020-04-26 22:32:46W0PINDQPOut of StateLP4new5488
2020-04-26 22:28:10W0PIMiQPSingle OpLP1,225new5490
2020-04-26 22:22:05W0PIOnQPSingle OpLP451new5507
 
2020-04-26 22:14:19AC0WFlQPSOAB(A)MixedLP57,670new5529
2020-04-26 22:05:26NE9UFlQPSOAB(A)CWHP10,296new5529
2020-04-26 22:02:55K0RJWFlQPSOABSSBHP4,142new5529
2020-04-26 22:02:37K0TCFlQPSOABCWHP10,716new5529
2020-04-26 21:54:42N0BUIFlQPSOABCWHP14,136new5529
2020-04-26 21:53:08W0PIFlQPSOABMixedLP31,008new5529
2020-04-26 21:28:02W6GMTFlQPSOAB(A)MixedLP6,510new5529
2020-04-26 21:25:58W0ZQFlQPSOABMixedHP45,018new5529
2020-04-26 21:19:42K4IUFlQPSOAB(A)CWLP8,352new5529
2020-04-26 20:37:21K0MPHFlQPSOAB(A)MixedLP1,764new5529
2020-04-26 14:28:29KA8HDEFlQPSOABMixedLP893new